• en Belgique
  • Liste des pays
  • À 7 jours
  • Température de l'eau
  • Carte satellitaire
  • Carte météo
  • Widgets météo
  • user-avatar
    Se connecter

    Météo par heure à Darwin

    Ce jour, 24 Février, Samedi

    Heure Température Précipitation Vent Pression Humidité
    00:00 +28°C° 1 mm 2 m/s 755 mmHg 90%
    01:00 +28°C° 0,1 mm 2 m/s 755 mmHg 90%
    02:00 +29°C° 0,1 mm 3 m/s 754 mmHg 90%
    03:00 +29°C° 0 mm 4 m/s 754 mmHg 89%
    04:00 +29°C° 0 mm 4 m/s 754 mmHg 90%
    05:00 +29°C° 0 mm 4 m/s 754 mmHg 90%
    06:00 +29°C° 0 mm 4 m/s 754 mmHg 91%
    07:00 +30°C° 0,7 mm 4 m/s 754 mmHg 87%
    08:00 +32°C° 0,7 mm 5 m/s 755 mmHg 83%
    09:00 +31°C° 0 mm 3 m/s 756 mmHg 80%
    10:00 +33°C° 0,9 mm 3 m/s 756 mmHg 77%
    11:00 +34°C° 0,9 mm 3 m/s 756 mmHg 74%
    12:00 +34°C° 0,9 mm 3 m/s 755 mmHg 71%
    13:00 +34°C° 0,2 mm 3 m/s 755 mmHg 69%
    14:00 +35°C° 0,2 mm 3 m/s 754 mmHg 67%
    15:00 +34°C° 0 mm 3 m/s 754 mmHg 68%
    16:00 +34°C° 0 mm 3 m/s 754 mmHg 71%
    17:00 +33°C° 0 mm 3 m/s 754 mmHg 74%
    18:00 +33°C° 0 mm 3 m/s 754 mmHg 77%
    19:00 +31°C° 0 mm 3 m/s 755 mmHg 78%
    20:00 +30°C° 0 mm 3 m/s 755 mmHg 80%
    21:00 +29°C° 0 mm 2 m/s 755 mmHg 81%
    22:00 +29°C° 0 mm 2 m/s 755 mmHg 82%
    23:00 +29°C° 0 mm 2 m/s 755 mmHg 83%

    Demain, 25 Février, Dimanche

    Heure Température Précipitation Vent Pression Humidité
    00:00 +29°C° 0 mm 2 m/s 755 mmHg 84%
    01:00 +28°C° 0 mm 1 m/s 755 mmHg 85%
    02:00 +28°C° 0 mm 1 m/s 754 mmHg 86%
    03:00 +28°C° 0 mm 1 m/s 754 mmHg 87%
    04:00 +28°C° 0 mm 1 m/s 754 mmHg 88%
    05:00 +28°C° 0 mm 1 m/s 755 mmHg 88%
    06:00 +27°C° 0 mm 1 m/s 755 mmHg 89%
    07:00 +29°C° 0,3 mm 1 m/s 755 mmHg 85%
    08:00 +30°C° 0,3 mm 1 m/s 755 mmHg 82%
    09:00 +31°C° 0,3 mm 2 m/s 755 mmHg 78%
    10:00 +32°C° 0,1 mm 2 m/s 755 mmHg 72%
    11:00 +34°C° 0,1 mm 2 m/s 755 mmHg 66%
    12:00 +36°C° 0,1 mm 2 m/s 755 mmHg 60%
    13:00 +35°C° 0,4 mm 3 m/s 754 mmHg 62%
    14:00 +35°C° 0,4 mm 3 m/s 754 mmHg 64%
    15:00 +35°C° 0,4 mm 3 m/s 753 mmHg 66%
    16:00 +34°C° 1,3 mm 3 m/s 753 mmHg 72%
    17:00 +33°C° 1,3 mm 3 m/s 753 mmHg 78%
    18:00 +30°C° 1,3 mm 2 m/s 753 mmHg 84%
    19:00 +30°C° 0 mm 2 m/s 754 mmHg 85%
    20:00 +29°C° 0 mm 2 m/s 754 mmHg 86%
    21:00 +29°C° 0 mm 1 m/s 755 mmHg 87%
    22:00 +29°C° 0,1 mm 1 m/s 755 mmHg 87%
    23:00 +29°C° 0,1 mm 2 m/s 755 mmHg 88%

    Après-demain, 26 Février, Lundi

    Heure Température Précipitation Vent Pression Humidité
    00:00 +28°C° 0,1 mm 2 m/s 754 mmHg 88%
    01:00 +28°C° 0 mm 2 m/s 754 mmHg 89%
    02:00 +28°C° 0 mm 3 m/s 754 mmHg 89%
    03:00 +28°C° 0 mm 3 m/s 753 mmHg 90%
    04:00 +28°C° 0 mm 3 m/s 754 mmHg 90%
    05:00 +28°C° 0 mm 3 m/s 754 mmHg 90%
    06:00 +28°C° 0 mm 2 m/s 755 mmHg 90%
    07:00 +29°C° 0,8 mm 2 m/s 755 mmHg 86%
    08:00 +30°C° 0,8 mm 1 m/s 755 mmHg 82%
    09:00 +32°C° 0,8 mm 1 m/s 755 mmHg 77%
    10:00 +33°C° 0 mm 1 m/s 755 mmHg 71%
    11:00 +35°C° 0 mm 2 m/s 755 mmHg 65%
    12:00 +36°C° 0 mm 2 m/s 754 mmHg 60%
    13:00 +36°C° 0,1 mm 2 m/s 754 mmHg 60%
    14:00 +36°C° 0,1 mm 3 m/s 754 mmHg 60%
    15:00 +36°C° 0,1 mm 3 m/s 753 mmHg 61%
    16:00 +35°C° 0,1 mm 3 m/s 753 mmHg 65%
    17:00 +34°C° 0,1 mm 3 m/s 753 mmHg 70%
    18:00 +32°C° 0,1 mm 2 m/s 753 mmHg 74%
    19:00 +31°C° 0 mm 2 m/s 754 mmHg 76%
    20:00 +30°C° 0 mm 2 m/s 755 mmHg 78%
    21:00 +30°C° 0 mm 2 m/s 755 mmHg 81%
    22:00 +29°C° 0,5 mm 2 m/s 755 mmHg 82%
    23:00 +29°C° 0,5 mm 2 m/s 755 mmHg 83%

    27 Février, Mardi

    Heure Température Précipitation Vent Pression Humidité
    00:00 +29°C° 0,5 mm 2 m/s 755 mmHg 84%
    01:00 +29°C° 0,2 mm 2 m/s 755 mmHg 84%
    02:00 +29°C° 0,2 mm 2 m/s 754 mmHg 85%
    03:00 +29°C° 0,2 mm 3 m/s 754 mmHg 86%
    04:00 +28°C° 0,7 mm 3 m/s 754 mmHg 87%
    05:00 +28°C° 0,7 mm 3 m/s 754 mmHg 89%
    06:00 +28°C° 0,7 mm 3 m/s 755 mmHg 91%
    07:00 +29°C° 0,1 mm 3 m/s 755 mmHg 87%
    08:00 +30°C° 0,1 mm 3 m/s 756 mmHg 83%
    09:00 +31°C° 0,1 mm 3 m/s 756 mmHg 80%
    10:00 +33°C° 0,2 mm 3 m/s 756 mmHg 76%
    11:00 +34°C° 0,2 mm 3 m/s 756 mmHg 72%
    12:00 +35°C° 0,2 mm 3 m/s 756 mmHg 68%
    13:00 +35°C° 0,2 mm 3 m/s 755 mmHg 68%
    14:00 +35°C° 0,2 mm 3 m/s 754 mmHg 68%
    15:00 +35°C° 0,2 mm 3 m/s 754 mmHg 68%
    16:00 +34°C° 0,8 mm 3 m/s 754 mmHg 73%
    17:00 +32°C° 0,8 mm 2 m/s 754 mmHg 78%
    18:00 +31°C° 0,8 mm 2 m/s 754 mmHg 83%
    19:00 +30°C° 0,2 mm 2 m/s 755 mmHg 85%
    20:00 +29°C° 0,2 mm 2 m/s 755 mmHg 86%
    21:00 +29°C° 0,2 mm 2 m/s 756 mmHg 87%
    22:00 +29°C° 0,1 mm 2 m/s 756 mmHg 88%
    23:00 +29°C° 0,1 mm 3 m/s 755 mmHg 88%

    28 Février, Mercredi

    Heure Température Précipitation Vent Pression Humidité
    00:00 +29°C° 0,1 mm 3 m/s 755 mmHg 88%
    01:00 +28°C° 0 mm 3 m/s 755 mmHg 88%
    02:00 +28°C° 0 mm 2 m/s 755 mmHg 88%
    03:00 +28°C° 0 mm 2 m/s 754 mmHg 88%
    04:00 +28°C° 1,5 mm 2 m/s 755 mmHg 89%
    05:00 +28°C° 1,5 mm 1 m/s 755 mmHg 90%
    06:00 +28°C° 1,5 mm 1 m/s 755 mmHg 91%
    07:00 +29°C° 1 mm 1 m/s 756 mmHg 87%
    08:00 +30°C° 1 mm 1 m/s 756 mmHg 83%
    09:00 +30°C° 1 mm 1 m/s 757 mmHg 80%
    10:00 +31°C° 0 mm 1 m/s 756 mmHg 74%
    11:00 +32°C° 0 mm 2 m/s 756 mmHg 69%
    12:00 +34°C° 0 mm 2 m/s 755 mmHg 64%
    13:00 +34°C° 0 mm 2 m/s 755 mmHg 62%
    14:00 +35°C° 0 mm 2 m/s 754 mmHg 60%
    15:00 +35°C° 0 mm 2 m/s 753 mmHg 59%
    16:00 +34°C° 0,1 mm 3 m/s 754 mmHg 64%
    17:00 +33°C° 0,1 mm 3 m/s 754 mmHg 69%
    18:00 +31°C° 0,1 mm 3 m/s 754 mmHg 74%
    19:00 +30°C° 0 mm 3 m/s 755 mmHg 76%
    20:00 +30°C° 0 mm 3 m/s 756 mmHg 78%
    21:00 +29°C° 0 mm 3 m/s 756 mmHg 80%
    22:00 +29°C° 0 mm 3 m/s 756 mmHg 81%
    23:00 +29°C° 0 mm 3 m/s 756 mmHg 82%

    1 Mars, Jeudi

    Heure Température Précipitation Vent Pression Humidité
    00:00 +29°C° 0 mm 3 m/s 756 mmHg 82%
    01:00 +28°C° 0 mm 3 m/s 755 mmHg 84%
    02:00 +28°C° 0 mm 3 m/s 755 mmHg 85%
    03:00 +28°C° 0 mm 3 m/s 754 mmHg 87%
    04:00 +28°C° 0,3 mm 3 m/s 754 mmHg 87%
    05:00 +28°C° 0,3 mm 2 m/s 755 mmHg 88%
    06:00 +28°C° 0,3 mm 2 m/s 755 mmHg 88%
    07:00 +29°C° 1,1 mm 2 m/s 755 mmHg 85%
    08:00 +30°C° 1,1 mm 1 m/s 755 mmHg 83%
    09:00 +31°C° 1,1 mm 1 m/s 756 mmHg 80%
    10:00 +32°C° 0,8 mm 1 m/s 756 mmHg 75%
    11:00 +32°C° 0,8 mm 2 m/s 755 mmHg 70%
    12:00 +34°C° 0,8 mm 2 m/s 755 mmHg 65%
    13:00 +35°C° 0,2 mm 2 m/s 755 mmHg 63%
    14:00 +35°C° 0,2 mm 2 m/s 754 mmHg 62%
    15:00 +35°C° 0,2 mm 2 m/s 754 mmHg 60%
    16:00 +34°C° 0,4 mm 2 m/s 754 mmHg 67%
    17:00 +32°C° 0,4 mm 2 m/s 754 mmHg 73%
    18:00 +30°C° 0,4 mm 2 m/s 754 mmHg 80%
    19:00 +30°C° 0,1 mm 2 m/s 754 mmHg 81%
    20:00 +29°C° 0,1 mm 2 m/s 755 mmHg 82%
    21:00 +29°C° 0,1 mm 2 m/s 755 mmHg 84%
    22:00 +28°C° 0,7 mm 2 m/s 755 mmHg 86%
    23:00 +28°C° 0,7 mm 2 m/s 755 mmHg 87%
    Voir plus